This demonstration page uses our WeatherBlox Daily Observations layout. Learn more.

Left ArrowRight Arrow

Hourly Observations for September 29, 2017

Temp ( °F °C ) Dew Point ( °F °C ) Humidity (%) Winds ( mph kmh ) Pressure ( in mb ) Visibility ( mi km ) Precip ( " mm )
12:05 am 00:05 Clear 54 12.2 50 10 87 87 N 5 7 30.21 1023 2.5 4.02335 0 0
12:12 am 00:12 Clear 53 11.7 50 10 89 89 NNW 5 7 30.24 1024 3 4.82802 0 0
12:49 am 00:49 Clear 55 13 52 11 88 88 NNW 5 7 30.21 1023 2.5 4.02335 0 0
12:54 am 00:54 Clear 54 12.2 50 10 87 87 N 5 7 30.21 1023 2.5 4.02335 0 0
1:17 am 01:17 Clear 53 11.7 49 9.4 86 86 N 5 7 30.27 1025 3 4.82802 0 0
1:54 am 01:54 Clear 52 11.1 49 9.4 89 89 Calm 30.21 1023 8 12.87472 0 0
2:54 am 02:54 Clear 52 11.1 49 9.4 89 89 Calm 30.21 1023 10 16.0934 0 0
3:54 am 03:54 Clear 52 11.1 50 10 93 93 Calm 30.21 1023 10 16.0934 0 0
4:54 am 04:54 Clear 54 12.2 50 10 87 87 Calm 30.22 1023 10 16.0934 0 0
5:54 am 05:54 Clear 55 12.8 50 10 83 83 Calm 30.23 1024 10 16.0934 0 0
6:54 am 06:54 Clear 55 12.8 50 10 83 83 Calm 30.24 1024 10 16.0934 0 0
7:54 am 07:54 Sunny with Mist and Fog 56 13.3 52 11.1 87 87 N 6 9 30.26 1025 6 9.65604 0 0
8:54 am 08:54 Sunny 59 15 52 11.1 78 78 NW 3 6 30.27 1025 9 14.48406 0 0
9:54 am 09:54 Sunny 65 18.3 51 10.6 61 61 Calm 30.28 1025 10 16.0934 0 0
10:54 am 10:54 Sunny 69 20.6 51 10.6 53 53 Calm 30.27 1025 10 16.0934 0 0
11:29 am 11:29 Hazy 72 22.2 52 11.1 50 50 Calm 30.24 1024 2 3.21868 0 0
11:45 am 11:45 Sunny 73 22.8 52 11.1 48 48 Calm 30.24 1024 8 12.87472 0 0
11:54 am 11:54 Sunny 74 23.3 52 11.1 46 46 Calm 30.27 1025 10 16.0934 0 0
12:54 pm 12:54 Sunny 77 25 48 8.9 36 36 SSE 3 6 30.25 1024 10 16.0934 0 0
1:54 pm 13:54 Sunny 79 26.1 45 7.2 30 30 ESE 3 6 30.23 1024 10 16.0934 0 0
2:54 pm 14:54 Cloudy 80 26.7 43 6.1 27 27 ESE 5 7 30.21 1023 10 16.0934 0 0
3:54 pm 15:54 Cloudy 79 26.1 46 7.8 31 31 S 7 11 30.21 1023 10 16.0934 0 0
4:54 pm 16:54 Sunny 80 26.7 46 7.8 30 30 E 6 9 30.19 1023 10 16.0934 0 0
5:54 pm 17:54 Sunny 79 26.1 48 8.9 34 34 NE 6 9 30.19 1022 10 16.0934 0 0
6:54 pm 18:54 Sunny 74 23.3 48 8.9 40 40 E 7 11 30.2 1023 10 16.0934 0 0
7:54 pm 19:54 Clear 71 21.7 48 8.9 44 44 E 8 13 30.2 1023 10 16.0934 0 0
8:54 pm 20:54 Clear 70 21.1 49 9.4 47 47 E 12 19 30.2 1023 10 16.0934 0 0
9:54 pm 21:54 Clear 69 20.6 51 10.6 53 53 E 9 15 30.21 1023 10 16.0934 0 0
10:54 pm 22:54 Clear 68 20 51 10.6 55 55 ESE 13 20 30.22 1023 10 16.0934 0 0
11:54 pm 23:54 Mostly Clear 67 19.4 51 10.6 57 57 ESE 15 24 30.22 1023 10 16.0934 0 0

Powered by AerisWeather